Regional Weather Roundup
Issued by NWS Goodland, KS

Home | Current Version | Previous Version | Text Only | Print | Product List | Glossary Off
Versions: 1 2 3 4 5 6 7 8 9 10 11 12 13 14 15 16 17 18 19 20 21 22 23 24 25 26 27 28 29 30 31 32 33 34 35 36 37 38 39 40 41 42 43 44 45 46 47 48 49 50

000
ASUS43 KGLD 250859
RWRGLD

GOODLAND FORECAST AREA HOURLY WEATHER ROUNDUP
NATIONAL WEATHER SERVICE GOODLAND KS
300 AM MDT FRI JUL 25 2014

...OFFICIAL OBSERVATIONS...

CITY           SKY/WX    TMP DP  RH WIND       PRES   REMARKS
GOODLAND KS    CLOUDY    78  54  43 S13       29.90F
HILL CITY KS   MOCLDY    83  63  50 SW12      29.84F
IMPERIAL NEB   PTCLDY    71  57  61 NW13      29.84F
MCCOOK NEB     PTCLDY    73  56  54 SW8       29.81S
AKRON CO       PTCLDY    69  52  54 W10       29.98S
BURLINGTON CO  CLOUDY    76  53  44 CALM      29.95S
LIMON CO       PTCLDY    60  56  86 N5        30.07S
$$

...UNOFFICIAL OBSERVATIONS...

CITY           SKY/WX    TMP DP  RH WIND       PRES   REMARKS
COLBY KS       PTCLDY    82  57  42 S16       29.87S
GOVE KS          N/A     80  32  17 MISG        N/A
LENORA KS        N/A     80  32  17 MISG        N/A
NORTON KS      CLEAR     81  54  39 S17G26    29.82S
SHARON SPRINGS   N/A     77  56  47 S9          N/A
WAKEENEY KS      N/A     78  60  53 MISG        N/A
KIT CARSON CO    N/A     73  53  50 CALM        N/A
YUMA CO          N/A     64  56  75 W9          N/A
$$


USA.gov is the U.S. government's official web portal to all federal, state and local government web resources and services.